Date String (YYYY-MM-DD hh:mm:ss) UTC,Instrument flags,Ambient pressure (hPa),Sample flow (lpm),Bypass flow (lpm),Sample temperature (°C),Ambient temperature (°C),ASC tube jacket temperature (°C),LED temperature (°C),Box temperature (°C),Sample RH (%),Span deviation,Mass concentration (μg/m³),Mass concentration (μg/m³),Mass concentration (μg/m³)
DateTimeUTC,F1_M11,P_M11,Q1_M11,Q2_M11,T1_M11,T2_M11,T3_M11,T4_M11,T5_M11,U1_M11,ZSPAN_M11,X0_M11,X2_M11,X1_M11
2022-10-29 22:00:00,,0829.1,4.99,0.00,27.7,26.5,00.0,36.4,29.6,06.4,0000.0,0008.47,0003.47,0003.29
2022-10-29 22:01:00,,0829.1,5.02,0.00,27.7,26.5,00.0,36.4,29.6,06.4,0000.0,0008.31,0003.45,0003.29
2022-10-29 22:02:00,,0829.1,4.99,0.00,27.7,26.5,00.0,36.4,29.6,06.3,0000.0,0008.51,0003.48,0003.29
2022-10-29 22:03:00,,0829.1,5.00,0.00,27.7,26.5,00.0,36.4,29.6,06.3,0000.0,0008.06,0003.49,0003.29
2022-10-29 22:04:00,,0829.2,5.00,0.00,27.7,26.5,00.0,36.4,29.6,06.2,0000.0,0008.25,0003.49,0003.29
2022-10-29 22:05:00,,0829.2,5.01,0.00,27.7,26.5,00.0,36.4,29.6,06.2,0000.0,0008.49,0003.51,0003.29
2022-10-29 22:06:00,,0829.2,5.01,0.00,27.8,26.5,00.0,36.4,29.6,06.3,0000.0,0008.36,0003.52,0003.30
2022-10-29 22:07:00,,0829.2,4.98,0.00,27.8,26.6,00.0,36.5,29.7,06.3,0000.0,0008.05,0003.52,0003.30
2022-10-29 22:08:00,,0829.1,5.00,0.00,27.8,26.6,00.0,36.5,29.7,06.3,0000.0,0008.15,0003.55,0003.31
2022-10-29 22:09:00,,0829.1,5.00,0.00,27.8,26.6,00.0,36.5,29.7,06.2,0000.0,0007.52,0003.56,0003.30
2022-10-29 22:10:00,,0829.1,5.00,0.00,27.8,26.6,00.0,36.5,29.7,06.2,0000.0,0007.44,0003.56,0003.30
2022-10-29 22:11:00,,0829.0,5.01,0.00,27.8,26.7,00.0,36.5,29.7,06.3,0000.0,0007.58,0003.55,0003.29
2022-10-29 22:12:00,,0829.0,4.98,0.00,27.8,26.7,00.0,36.5,29.7,06.3,0000.0,0008.10,0003.57,0003.30
2022-10-29 22:13:00,,0829.1,5.01,0.00,27.9,26.7,00.0,36.6,29.8,06.3,0000.0,0008.08,0003.54,0003.30
2022-10-29 22:14:00,,0829.0,5.01,0.00,27.9,26.7,00.0,36.6,29.8,06.3,0000.0,0008.07,0003.55,0003.31
2022-10-29 22:15:00,,0829.1,5.00,0.00,27.9,26.7,00.0,36.6,29.8,06.3,0000.0,0007.89,0003.57,0003.31
2022-10-29 22:16:00,,0829.0,5.00,0.00,27.9,26.7,00.0,36.6,29.8,06.3,0000.0,0007.65,0003.56,0003.31
2022-10-29 22:17:00,,0829.0,5.01,0.00,27.9,26.7,00.0,36.6,29.8,06.3,0000.0,0007.76,0003.61,0003.31
2022-10-29 22:18:00,,0829.0,4.98,0.00,27.9,26.7,00.0,36.6,29.8,06.2,0000.0,0007.89,0003.65,0003.32
2022-10-29 22:19:00,,0829.0,5.01,0.00,27.9,26.7,00.0,36.6,29.8,06.2,0000.0,0007.89,0003.65,0003.33
2022-10-29 22:20:00,,0829.1,5.00,0.00,27.9,26.7,00.0,36.6,29.8,06.2,0000.0,0007.85,0003.68,0003.33
2022-10-29 22:21:00,,0829.1,5.01,0.00,27.9,26.7,00.0,36.7,29.8,06.3,0000.0,0007.82,0003.69,0003.35
2022-10-29 22:22:00,,0829.1,5.01,0.00,28.0,26.7,00.0,36.7,29.8,06.3,0000.0,0007.64,0003.70,0003.36
2022-10-29 22:23:00,,0829.1,5.00,0.00,28.0,26.7,00.0,36.7,29.8,06.2,0000.0,0006.36,0003.70,0003.39
2022-10-29 22:24:00,,0829.1,4.98,0.00,28.0,26.7,00.0,36.7,29.9,06.2,0000.0,0005.69,0003.71,0003.40
2022-10-29 22:25:00,,0829.1,5.01,0.00,28.0,26.8,00.0,36.7,29.9,06.2,0000.0,0005.56,0003.70,0003.41
2022-10-29 22:26:00,,0829.0,5.00,0.00,28.0,26.8,00.0,36.7,29.9,06.2,0000.0,0005.51,0003.69,0003.43
2022-10-29 22:27:00,,0829.0,5.00,0.00,28.0,26.8,00.0,36.7,29.9,06.2,0000.0,0006.34,0003.75,0003.46
2022-10-29 22:28:00,,0829.0,4.99,0.00,28.0,26.8,00.0,36.7,29.9,06.2,0000.0,0007.46,0003.76,0003.47
2022-10-29 22:29:00,,0829.1,5.01,0.00,28.0,26.8,00.0,36.7,29.9,06.2,0000.0,0007.49,0003.72,0003.47
2022-10-29 22:30:00,,0829.0,5.01,0.00,28.0,26.8,00.0,36.8,29.9,06.3,0000.0,0007.48,0003.72,0003.47
2022-10-29 22:31:00,,0829.0,5.00,0.00,28.1,26.8,00.0,36.8,30.0,06.4,0000.0,0007.47,0003.74,0003.48
2022-10-29 22:32:00,,0829.0,4.97,0.00,28.1,26.8,00.0,36.8,30.0,06.3,0000.0,0007.54,0003.76,0003.47
2022-10-29 22:33:00,,0829.1,5.02,0.00,28.1,26.9,00.0,36.8,30.0,06.2,0000.0,0007.59,0003.77,0003.45
2022-10-29 22:34:00,,0829.1,4.97,0.00,28.1,26.9,00.0,36.8,30.0,06.2,0000.0,0007.78,0003.76,0003.43
2022-10-29 22:35:00,,0829.2,5.01,0.00,28.1,26.9,00.0,36.8,30.0,06.2,0000.0,0008.04,0003.76,0003.41
2022-10-29 22:36:00,,0829.1,5.01,0.00,28.1,26.9,00.0,36.8,30.0,06.3,0000.0,0008.05,0003.74,0003.39
2022-10-29 22:37:00,,0829.1,5.00,0.00,28.1,26.9,00.0,36.8,30.0,06.2,0000.0,0008.05,0003.73,0003.36
2022-10-29 22:38:00,,0829.1,4.99,0.00,28.1,26.9,00.0,36.8,30.0,06.3,0000.0,0007.53,0003.66,0003.34
2022-10-29 22:39:00,,0829.1,5.00,0.00,28.2,26.9,00.0,36.8,30.0,06.4,0000.0,0006.45,0003.61,0003.30
2022-10-29 22:40:00,,0829.1,5.00,0.00,28.2,26.9,00.0,36.9,30.0,06.1,0000.0,0006.67,0003.60,0003.29
2022-10-29 22:41:00,,0829.1,5.01,0.00,28.2,26.9,00.0,36.9,30.0,06.1,0000.0,0007.42,0003.58,0003.27
2022-10-29 22:42:00,,0829.1,4.98,0.00,28.2,26.9,00.0,36.9,30.1,06.1,0000.0,0007.45,0003.52,0003.25
2022-10-29 22:43:00,,0829.1,5.00,0.00,28.2,26.9,00.0,36.9,30.1,06.1,0000.0,0007.88,0003.49,0003.23
2022-10-29 22:44:00,,0829.1,5.01,0.00,28.2,27.0,00.0,36.9,30.1,06.1,0000.0,0007.87,0003.48,0003.23
2022-10-29 22:45:00,,0829.1,5.01,0.00,28.2,27.0,00.0,36.9,30.1,06.0,0000.0,0007.72,0003.47,0003.21
2022-10-29 22:46:00,,0829.2,4.99,0.00,28.2,27.0,00.0,36.9,30.1,06.0,0000.0,0007.53,0003.46,0003.21
2022-10-29 22:47:00,,0829.2,5.00,0.00,28.2,27.0,00.0,36.9,30.1,06.1,0000.0,0008.23,0003.47,0003.20
2022-10-29 22:48:00,,0829.2,5.01,0.00,28.2,27.0,00.0,36.9,30.1,06.1,0000.0,0008.26,0003.45,0003.18
2022-10-29 22:49:00,,0829.2,5.01,0.00,28.3,27.0,00.0,37.0,30.1,06.1,0000.0,0008.44,0003.44,0003.16
2022-10-29 22:50:00,,0829.2,5.01,0.00,28.3,27.0,00.0,37.0,30.1,05.9,0000.0,0008.72,0003.45,0003.15
2022-10-29 22:51:00,,0829.2,4.98,0.00,28.3,27.0,00.0,37.0,30.1,05.9,0000.0,0008.47,0003.45,0003.14
2022-10-29 22:52:00,,0829.2,5.00,0.00,28.3,27.0,00.0,37.0,30.2,05.8,0000.0,0008.05,0003.44,0003.12
2022-10-29 22:53:00,,0829.3,5.00,0.00,28.3,27.0,00.0,37.0,30.2,05.8,0000.0,0007.92,0003.44,0003.11
2022-10-29 22:54:00,,0829.3,5.00,0.00,28.3,27.0,00.0,37.0,30.2,05.8,0000.0,0007.48,0003.43,0003.09
2022-10-29 22:55:00,,0829.3,5.01,0.00,28.3,27.1,00.0,37.0,30.2,05.7,0000.0,0007.49,0003.43,0003.10
2022-10-29 22:56:00,,0829.3,4.98,0.00,28.3,27.1,00.0,37.0,30.2,05.7,0000.0,0008.15,0003.42,0003.11
2022-10-29 22:57:00,,0829.3,5.02,0.00,28.3,27.0,00.0,37.0,30.2,05.6,0000.0,0008.13,0003.43,0003.12
2022-10-29 22:58:00,,0829.3,5.00,0.00,28.3,27.0,00.0,37.0,30.2,05.7,0000.0,0007.44,0003.43,0003.13
2022-10-29 22:59:00,,0829.2,4.99,0.00,28.3,27.0,00.0,37.0,30.2,05.7,0000.0,0007.38,0003.42,0003.13
